Location: Curupao
(10.4996°N, 66.6442°W)
Time: 02:04:50
(UTC+00:00)

RESURS DK-1 - Pass Details

Date: 23 May 2024
Orbit: 542 x 547 km, 69.9° (Epoch: 12 June)

Event Time Altitude Azimuth Distance (km) Brightness Sun altitude
Rises 08:37:19 0° 334° (NNW) 2,702 5.9 -20.3°
Reaches altitude 10° 08:39:33 10° 329° (NNW) 1,810 4.9 -19.8°
Maximum altitude 08:43:27 49° 254° (WSW) 708 2.4 -18.9°
Enters shadow 08:44:03 45° 224° (SW) 754 2.5 -18.8°
